Mildenhall RAF, United Kingdom

12:33 AM GMT on December 18, 2017 (GMT +0000)
Mildenhall Air Base

Weather History for EGUN - September, 2012

Change the Weather History Date:

Tuesday, September 18, 2012

  Actual Average Record
Temperature  
Mean Temperature 54 °F -  
Max Temperature 63 °F - - ()
Min Temperature 45 °F - - ()
Degree Days  
Heating Degree Days 11    
Growing Degree Days 4 (Base 50)    
Moisture  
Dew Point 45 °F    
Average Humidity 73    
Maximum Humidity 100    
Minimum Humidity 45    
Precipitation  
Precipitation 0.00 in - - ()
Sea Level Pressure  
Sea Level Pressure 29.89 in    
Wind  
Wind Speed 11 mph ()    
Max Wind Speed 21 mph    
Max Gust Speed 29 mph    
Visibility 6.2 miles    
Events      
T = Trace of Precipitation, MM = Missing Value Source: Averaged Metar Reports

Daily Weather History Graph

Daily Weather History Graph

Search for Another Location

Airport or City:

Trip Planner

Search our weather history database for the weather conditions in past years. The results will help you decide how hot, cold, wet, or windy it might be!

Date:

Astronomy

Sep. 18, 2012 Rise Set
Actual Time 6:37 AM BST 7:05 PM BST
Civil Twilight 6:03 AM BST 7:39 PM BST
Nautical Twilight 5:22 AM BST 8:19 PM BST
Astronomical Twilight 4:39 AM BST 9:02 PM BST
Moon 9:49 AM BST 7:45 PM BST
Length of Visible Light 13h 35m
Length of Day
12h 27m
Waxing Crescent, 7% of the Moon is Illuminated
Sep 18
Waxing Crescent
Sep 22
First Quarter
Sep 30
Full
Oct 8
Last Quarter
Oct 15
New

Hourly Weather History & Observations

Time (BST) Temp. Windchill Dew Point Humidity Pressure Visibility Wind Dir Wind Speed Gust Speed Precip Events Conditions
12:58 AM 54.3 °F - 49.5 °F 84% 29.82 in 6.2 mi SW 11.5 mph - N/A   Clear
1:58 AM 53.2 °F - 49.8 °F 88% 29.81 in 6.2 mi SW 8.1 mph - N/A   Clear
2:58 AM 51.6 °F - 49.5 °F 92% 29.81 in 6.2 mi WSW 5.8 mph - N/A   Clear
3:58 AM 51.6 °F - 50.0 °F 94% 29.80 in 6.2 mi SW 8.1 mph - N/A   Mostly Cloudy
4:58 AM 51.6 °F - 50.2 °F 95% 29.80 in 6.2 mi WSW 9.2 mph - N/A   Clear
5:58 AM 51.1 °F - 50.5 °F 98% 29.80 in 6.2 mi WSW 8.1 mph - N/A   Mostly Cloudy
6:58 AM 49.6 °F - 49.6 °F 100% 29.82 in 6.2 mi SW 6.9 mph - N/A   Scattered Clouds
7:58 AM 50.9 °F - 50.9 °F 100% 29.83 in 6.2 mi WSW 6.9 mph - N/A   Clear
8:58 AM 54.1 °F - 49.8 °F 85% 29.84 in 6.2 mi West 12.7 mph - N/A   Clear
9:58 AM 57.0 °F - 47.8 °F 71% 29.86 in 6.2 mi West 16.1 mph - N/A   Partly Cloudy
10:58 AM 58.1 °F - 46.0 °F 64% 29.86 in 6.2 mi WNW 19.6 mph - N/A   Scattered Clouds
11:19 AM 57.2 °F - 44.6 °F 63% 29.86 in 6.2 mi WNW 18.4 mph 24.2 mph N/A   Mostly Cloudy
11:22 AM 59.0 °F - 44.6 °F 59% 29.86 in 6.2 mi West 20.7 mph 24.2 mph N/A   Scattered Clouds
11:58 AM 59.5 °F - 43.9 °F 56% 29.87 in 6.2 mi West 15.0 mph - N/A   Partly Cloudy
12:58 PM 58.1 °F - 43.0 °F 57% 29.88 in 6.2 mi WNW 18.4 mph - N/A   Scattered Clouds
1:58 PM 60.1 °F - 41.9 °F 51% 29.89 in 6.2 mi WNW 19.6 mph 25.3 mph N/A   Scattered Clouds
2:58 PM 61.5 °F - 43.0 °F 51% 29.90 in 6.2 mi WNW 12.7 mph - N/A   Clear
3:58 PM 60.8 °F - 43.2 °F 52% 29.91 in 6.2 mi WNW 18.4 mph 28.8 mph N/A   Overcast
4:58 PM 60.1 °F - 38.8 °F 45% 29.93 in 6.2 mi WNW 17.3 mph 28.8 mph N/A   Clear
5:55 PM 55.4 °F - 39.2 °F 54% 29.94 in 6.2 mi WNW 20.7 mph 27.6 mph N/A   Scattered Clouds
6:55 PM 53.6 °F - 39.2 °F 58% 29.96 in 6.2 mi WNW 10.4 mph - N/A   Scattered Clouds
7:58 PM 52.3 °F - 39.4 °F 61% 30.00 in 6.2 mi WNW 12.7 mph - N/A   Scattered Clouds
8:58 PM 49.5 °F - 39.9 °F 70% 30.02 in 6.2 mi WNW 12.7 mph - N/A   Clear
9:58 PM 47.5 °F - 40.5 °F 77% 30.03 in 6.2 mi West 10.4 mph - N/A   Clear
10:58 PM 47.1 °F - 41.4 °F 80% 30.05 in 6.2 mi West 10.4 mph - N/A   Clear
11:58 PM 45.0 °F 39.7 °F 41.7 °F 88% 30.05 in 6.2 mi WSW 10.4 mph - N/A   Clear